Погода в Людиново

Россия / Калужская область     53°51′52″N   34°26′51″E
темп.,
°C
ветер,
м/с
пор.,
м/с
влажн.,
%
обл.,
%
осадки,
мм/ч
давл.,
гПа
погр.,
м
25 июля, вс
вс2500:00+12в22805 0.0 101816
03:00+11всв11750 0.0 101911
06:00+13в23745 0.0 101947
09:00+20юв12525 0.0 1020417
12:00+23ююв224365 0.0 10201459
15:00+24юв134394 0.0 10201824
18:00+22в34536 0.0 1020369
21:00+17вюв227673 0.0 102132
26 июля, пн
пн2600:00+16юв227686 0.1 102223
03:00+17ююв117893 0.1 102211
06:00+16ююз228484 0.0 102355
09:00+21ююз236326 0.0 1023398
12:00+26ю21430 0.0 10221958
15:00+25ююв1255100 0.0 1022470
18:00+22юв236797 0.0 102263
21:00+19ююв117677 0.0 102217
27 июля, вт
вт2700:00+17ю22857 0.2 102317
03:00+16юз1187100 0.3 102311
06:00+16ююв119144 0.6 102323
09:00+22ююв236649 0.6 1022360
12:00+27ю234242 0.0 10211533
15:00+28ююз234299 0.0 10201701
18:00+27ю135256 0.0 1019752
21:00+22ююв36659 0.0 1018126
28 июля, ср
ср2800:00+18юв2673100 0.0 101899
03:00+19зюз2369100 0.0 101888
06:00+19юв3966100 0.0 1015264
09:00+18в2378100 0.1 101555
12:00+17вюв4993100 2.0 1014242
15:00+24ю5966100 2.2 10111389
18:00+21ююз4991100 1.0 1011586
21:00+19зюз24974 3.4 101076
29 июля, чт
чт2900:00+18зюз23960 0.1 101149
03:00+17зюз24970 0.2 101081
06:00+17з289583 0.3 1010195
09:00+21зсз477597 0.3 1010418
12:00+26з5751100 0.0 10101768
15:00+28з57419 0.0 10102379
18:00+27з474830 0.0 10101769
21:00+20зюз12724 0.0 101011